Location: Czu?�w
(50.1404°N, 18.9919°E)
Time: 12:03:42
(UTC+00:00)

USA 306 - Pass Details

Date: 27 October 2020
Orbit: 569 x 577 km, 54.0° (Epoch: 22 November)

Event Time Altitude Azimuth Distance (km) Brightness Sun altitude
Rises 16:12:57 0° 289° (WNW) 2,788 7.6 -7.7°
Reaches altitude 10° 16:15:15 10° 293° (WNW) 1,887 6.5 -8.0°
Maximum altitude 16:19:30 59° 14° (NNE) 667 3.1 -8.7°
Enters shadow 16:23:25 12° 93° (E) 1,762 4.8 -9.3°
